Tracking 20382 objects as of 24-Feb-2020
HD Live streaming from Space Station
objects crossing your sky now
Track the group of recently launched Starlink satellites

POLAR BEAR

Track POLAR BEAR now!
10-day predictions
POLAR BEAR is classified as:


NORAD ID: 17070
Int'l Code: 1986-088A
Perigee: 960.2 km
Apogee: 1,018.9 km
Inclination: 89.5 °
Period: 104.7 minutes
Semi major axis: 7360 km
RCS: 1.4926 m2 (large)
Launch date: November 14, 1986
Source: United States (US)
Launch site: AIR FORCE WESTERN TEST RANGE (AFWTR)
aabbcc
Your satellite tracking list
Your tracking list is empty




NASA's NSSDC Master Catalog

Two Line Element Set (TLE):
1 17070U 86088A   20054.64769378  .00000055  00000-0  45454-4 0  9992
2 17070  89.5248 278.3584 0039863  32.0839 352.8022 13.74794554668870
Source of the keplerian elements: AFSPC